Radiation Dose at Monitoring Post of Fukushima Daini Nuclear Power Station
Date,Time,MP-1(microSv/h),MP-2(microSv/h),MP-3(microSv/h),MP-4(microSv/h),MP-5(microSv/h),MP-6(microSv/h),MP-7(microSv/h),Wind Direction,Wind Velocity(m/s),Rain
2018/02/09,00:00,0.336,0.204,0.337,0.320,0.302,0.169,0.101,north-northwest,6.4,No
2018/02/09,00:10,0.338,0.205,0.336,0.318,0.303,0.168,0.100,north-northwest,4.6,No
2018/02/09,00:20,0.338,0.204,0.337,0.320,0.301,0.168,0.101,north-northwest,2.5,No
2018/02/09,00:30,0.338,0.203,0.336,0.318,0.301,0.169,0.101,north-northwest,3.6,No
2018/02/09,00:40,0.338,0.204,0.338,0.319,0.301,0.168,0.102,north-northwest,4.2,No
2018/02/09,00:50,0.337,0.203,0.337,0.318,0.303,0.168,0.101,northwest,4.1,No
2018/02/09,01:00,0.337,0.204,0.337,0.319,0.302,0.169,0.101,northwest,3.6,No
2018/02/09,01:10,0.336,0.205,0.337,0.318,0.301,0.169,0.102,northwest,3.4,No
2018/02/09,01:20,0.339,0.204,0.337,0.320,0.302,0.169,0.102,west-northwest,3.8,No
2018/02/09,01:30,0.338,0.204,0.336,0.320,0.302,0.169,0.102,west-northwest,4.8,No
2018/02/09,01:40,0.337,0.204,0.337,0.319,0.301,0.168,0.101,west-northwest,4.8,No
2018/02/09,01:50,0.336,0.204,0.337,0.320,0.302,0.168,0.101,west,3.7,No
2018/02/09,02:00,0.336,0.204,0.337,0.321,0.303,0.168,0.101,west,3.1,No
2018/02/09,02:10,0.337,0.205,0.338,0.320,0.302,0.169,0.102,west,2.6,No
2018/02/09,02:20,0.336,0.204,0.337,0.319,0.303,0.167,0.101,northwest,1.9,No
2018/02/09,02:30,0.337,0.204,0.336,0.319,0.301,0.168,0.101,west-northwest,2.7,No
2018/02/09,02:40,0.337,0.204,0.335,0.318,0.303,0.168,0.102,west-northwest,1.9,No
2018/02/09,02:50,0.337,0.204,0.337,0.320,0.303,0.169,0.101,northwest,1.4,No
2018/02/09,03:00,0.338,0.204,0.337,0.318,0.302,0.169,0.102,west-northwest,1.2,No
2018/02/09,03:10,0.337,0.204,0.335,0.320,0.302,0.169,0.100,west,2.2,No
2018/02/09,03:20,0.337,0.204,0.336,0.319,0.301,0.168,0.101,west,3.2,No
2018/02/09,03:30,0.337,0.204,0.336,0.320,0.302,0.168,0.102,west,3.4,No
2018/02/09,03:40,0.338,0.204,0.337,0.319,0.303,0.168,0.101,west,4.3,No
2018/02/09,03:50,0.337,0.204,0.336,0.319,0.302,0.168,0.101,west,5.6,No
2018/02/09,04:00,0.337,0.203,0.336,0.318,0.304,0.168,0.101,west,6.8,No
2018/02/09,04:10,0.338,0.205,0.337,0.319,0.301,0.168,0.101,west-southwest,5.9,No
2018/02/09,04:20,0.336,0.204,0.336,0.319,0.303,0.169,0.101,west-southwest,6.7,No
2018/02/09,04:30,0.337,0.204,0.335,0.319,0.302,0.168,0.102,west-southwest,8.1,No
2018/02/09,04:40,0.336,0.203,0.337,0.317,0.300,0.168,0.101,west,8.1,No
2018/02/09,04:50,0.336,0.204,0.336,0.318,0.303,0.169,0.101,west,7.3,No
2018/02/09,05:00,0.338,0.204,0.336,0.318,0.302,0.168,0.102,west,8.1,No
2018/02/09,05:10,0.336,0.204,0.336,0.318,0.302,0.168,0.101,west-southwest,10.9,No
2018/02/09,05:20,0.338,0.204,0.336,0.320,0.302,0.168,0.101,west-southwest,10.9,No
2018/02/09,05:30,0.337,0.203,0.335,0.319,0.301,0.169,0.102,west,10.0,No
2018/02/09,05:40,0.337,0.205,0.337,0.319,0.301,0.168,0.101,west,9.6,No
2018/02/09,05:50,0.336,0.204,0.336,0.318,0.302,0.168,0.101,west,8.6,No
2018/02/09,06:00,0.337,0.203,0.337,0.318,0.301,0.168,0.102,west,8.7,No
2018/02/09,06:10,0.337,0.203,0.336,0.319,0.301,0.168,0.102,west,4.8,No
2018/02/09,06:20,0.337,0.203,0.337,0.318,0.301,0.168,0.101,west-southwest,3.5,No
2018/02/09,06:30,0.336,0.205,0.336,0.318,0.302,0.169,0.102,southwest,4.4,No
2018/02/09,06:40,0.336,0.205,0.337,0.319,0.302,0.168,0.101,southwest,4.2,No
2018/02/09,06:50,0.336,0.204,0.335,0.319,0.303,0.168,0.101,southwest,6.4,No
2018/02/09,07:00,0.339,0.204,0.335,0.318,0.302,0.169,0.101,southwest,5.7,No
2018/02/09,07:10,0.337,0.204,0.336,0.318,0.301,0.167,0.101,southwest,5.8,No
2018/02/09,07:20,0.337,0.203,0.335,0.319,0.302,0.168,0.101,southwest,5.1,No
2018/02/09,07:30,0.338,0.204,0.337,0.318,0.302,0.168,0.101,southwest,4.5,No
2018/02/09,07:40,0.337,0.204,0.336,0.318,0.302,0.168,0.101,west-southwest,3.8,No
2018/02/09,07:50,0.336,0.204,0.337,0.317,0.303,0.169,0.102,southwest,4.3,No
2018/02/09,08:00,0.336,0.203,0.334,0.317,0.302,0.168,0.100,southwest,3.6,No
2018/02/09,08:10,0.336,0.205,0.336,0.316,0.302,0.168,0.101,southwest,4.3,No
2018/02/09,08:20,0.336,0.203,0.337,0.319,0.302,0.168,0.102,west-southwest,2.8,No
2018/02/09,08:30,0.336,0.204,0.335,0.319,0.303,0.169,0.102,southwest,1.8,No
2018/02/09,08:40,0.336,0.204,0.336,0.318,0.302,0.168,0.101,south-southwest,2.4,No
2018/02/09,08:50,0.337,0.203,0.335,0.318,0.301,0.168,0.102,southwest,1.7,No
2018/02/09,09:00,0.336,0.204,0.333,0.318,0.302,0.168,0.101,southwest,2.2,No
2018/02/09,09:10,0.336,0.204,0.336,0.317,0.302,0.168,0.101,south,2.5,No
2018/02/09,09:20,0.336,0.204,0.335,0.317,0.302,0.168,0.101,south,3.8,No
2018/02/09,09:30,0.335,0.203,0.336,0.318,0.302,0.168,0.100,south-southeast,3.1,No
2018/02/09,09:40,0.337,0.204,0.336,0.318,0.303,0.167,0.100,south-southeast,4.2,No
2018/02/09,09:50,0.335,0.202,0.335,0.317,0.302,0.168,0.101,south,4.4,No
2018/02/09,10:00,0.334,0.202,0.336,0.319,0.301,0.168,0.101,south-southwest,3.0,No
2018/02/09,10:10,0.335,0.204,0.335,0.317,0.303,0.169,0.100,southwest,5.0,No
2018/02/09,10:20,0.333,0.203,0.335,0.317,0.303,0.169,0.100,southwest,3.9,No
2018/02/09,10:30,0.334,0.203,0.337,0.319,0.301,0.167,0.101,southwest,5.9,No
2018/02/09,10:40,0.336,0.203,0.336,0.318,0.303,0.168,0.100,southwest,4.8,No
2018/02/09,10:50,0.334,0.203,0.335,0.319,0.302,0.168,0.101,south-southwest,3.4,No
2018/02/09,11:00,0.336,0.203,0.336,0.317,0.302,0.169,0.101,south-southwest,5.3,No
2018/02/09,11:10,0.335,0.203,0.335,0.318,0.304,0.169,0.101,south-southwest,3.5,No
2018/02/09,11:20,0.336,0.203,0.335,0.318,0.302,0.168,0.100,south,1.4,No
2018/02/09,11:30,0.336,0.203,0.333,0.318,0.304,0.167,0.101,west-southwest,4.0,No
2018/02/09,11:40,0.334,0.204,0.336,0.317,0.301,0.168,0.101,west-southwest,2.8,No
2018/02/09,11:50,0.335,0.204,0.334,0.317,0.305,0.169,0.101,south-southwest,6.2,No
2018/02/09,12:00,0.335,0.203,0.334,0.318,0.302,0.168,0.101,south,5.6,No
2018/02/09,12:10,0.337,0.204,0.335,0.317,0.304,0.168,0.101,south-southeast,6.6,No
2018/02/09,12:20,0.334,0.202,0.333,0.319,0.303,0.168,0.102,south,5.8,No
2018/02/09,12:30,0.337,0.204,0.334,0.318,0.302,0.169,0.101,south,5.2,No
2018/02/09,12:40,0.335,0.202,0.334,0.318,0.305,0.168,0.102,south,7.1,No
2018/02/09,12:50,0.336,0.204,0.334,0.320,0.303,0.169,0.101,south-southeast,6.8,No
2018/02/09,13:00,0.336,0.204,0.335,0.318,0.304,0.167,0.102,south-southeast,5.3,No
2018/02/09,13:10,0.336,0.203,0.333,0.320,0.303,0.168,0.101,south-southeast,3.2,No
2018/02/09,13:20,0.337,0.204,0.335,0.318,0.303,0.169,0.101,south-southeast,4.2,No
2018/02/09,13:30,0.336,0.204,0.334,0.317,0.305,0.168,0.100,south-southeast,5.1,No
2018/02/09,13:40,0.337,0.203,0.335,0.318,0.302,0.168,0.101,south,7.6,No
2018/02/09,13:50,0.336,0.204,0.334,0.318,0.304,0.169,0.101,south-southeast,6.7,No
2018/02/09,14:00,0.335,0.204,0.333,0.319,0.303,0.169,0.100,south,7.1,No
2018/02/09,14:10,0.337,0.203,0.335,0.319,0.304,0.168,0.100,south,7.3,No
2018/02/09,14:20,0.336,0.204,0.335,0.319,0.303,0.168,0.100,south,7.9,No
2018/02/09,14:30,0.335,0.204,0.336,0.319,0.303,0.168,0.102,south,7.6,No
2018/02/09,14:40,0.336,0.204,0.336,0.319,0.305,0.168,0.101,south,6.9,No
2018/02/09,14:50,0.336,0.206,0.336,0.319,0.304,0.168,0.102,south-southeast,5.0,No
2018/02/09,15:00,0.334,0.204,0.337,0.320,0.305,0.168,0.102,south,5.3,No
2018/02/09,15:10,0.339,0.205,0.337,0.322,0.305,0.169,0.101,south,6.5,No
2018/02/09,15:20,0.337,0.205,0.336,0.319,0.305,0.169,0.101,south-southeast,5.6,No
2018/02/09,15:30,0.337,0.204,0.335,0.318,0.302,0.169,0.102,south,4.6,No
2018/02/09,15:40,0.337,0.205,0.334,0.318,0.305,0.168,0.100,south,6.2,No
2018/02/09,15:50,0.337,0.205,0.335,0.319,0.305,0.168,0.101,south-southeast,4.1,No
2018/02/09,16:00,0.337,0.205,0.335,0.320,0.304,0.167,0.102,south-southeast,3.1,No
2018/02/09,16:10,0.337,0.204,0.335,0.319,0.304,0.169,0.101,-,CALM,No
2018/02/09,16:20,0.337,0.204,0.337,0.320,0.303,0.169,0.101,northeast,1.0,No
2018/02/09,16:30,0.336,0.204,0.335,0.319,0.304,0.169,0.101,-,CALM,No
2018/02/09,16:40,0.337,0.204,0.336,0.319,0.304,0.169,0.101,south-southeast,0.9,No
2018/02/09,16:50,0.339,0.205,0.334,0.320,0.304,0.169,0.101,-,CALM,No
2018/02/09,17:00,0.337,0.206,0.335,0.320,0.303,0.168,0.101,-,CALM,No
2018/02/09,17:10,0.337,0.204,0.336,0.319,0.303,0.169,0.101,northeast,0.7,No
2018/02/09,17:20,0.338,0.205,0.336,0.319,0.304,0.169,0.101,east-southeast,0.6,No
2018/02/09,17:30,0.337,0.205,0.336,0.320,0.303,0.170,0.101,-,CALM,No
2018/02/09,17:40,0.337,0.204,0.336,0.319,0.304,0.169,0.101,-,CALM,No
2018/02/09,17:50,0.337,0.204,0.336,0.319,0.304,0.168,0.101,north-northwest,1.6,No
2018/02/09,18:00,0.338,0.204,0.335,0.319,0.303,0.168,0.101,north-northwest,1.7,No
2018/02/09,18:10,0.338,0.205,0.336,0.319,0.302,0.169,0.102,north-northwest,1.1,No
2018/02/09,18:20,0.337,0.204,0.335,0.320,0.303,0.169,0.101,west,1.6,No
2018/02/09,18:30,0.338,0.206,0.335,0.319,0.304,0.168,0.102,west,3.1,No
2018/02/09,18:40,0.338,0.205,0.336,0.319,0.304,0.169,0.101,southwest,0.7,No
2018/02/09,18:50,0.338,0.204,0.336,0.320,0.303,0.168,0.101,northwest,1.0,No
2018/02/09,19:00,0.338,0.205,0.336,0.319,0.302,0.168,0.100,northwest,2.8,No
2018/02/09,19:10,0.336,0.205,0.337,0.319,0.303,0.168,0.102,west-southwest,3.9,No
2018/02/09,19:20,0.337,0.204,0.337,0.319,0.302,0.169,0.102,west-southwest,5.6,No
2018/02/09,19:30,0.337,0.206,0.336,0.321,0.303,0.168,0.102,west-southwest,4.3,No
2018/02/09,19:40,0.337,0.204,0.336,0.321,0.303,0.169,0.102,west-southwest,3.5,No
2018/02/09,19:50,0.337,0.205,0.336,0.321,0.302,0.169,0.102,southwest,0.9,No
2018/02/09,20:00,0.338,0.205,0.337,0.321,0.304,0.168,0.102,north-northeast,1.1,No
2018/02/09,20:10,0.337,0.205,0.337,0.319,0.304,0.169,0.102,-,CALM,No
2018/02/09,20:20,0.337,0.205,0.336,0.320,0.303,0.169,0.101,north-northwest,0.9,No
2018/02/09,20:30,0.337,0.205,0.337,0.319,0.303,0.169,0.101,north-northwest,1.7,No
2018/02/09,20:40,0.338,0.204,0.337,0.318,0.303,0.169,0.102,-,CALM,No
2018/02/09,20:50,0.337,0.205,0.337,0.320,0.303,0.169,0.102,south,0.6,No
2018/02/09,21:00,0.337,0.205,0.336,0.319,0.303,0.168,0.101,west-northwest,0.8,No
2018/02/09,21:10,0.337,0.205,0.335,0.320,0.303,0.169,0.101,west,2.1,No
2018/02/09,21:20,0.337,0.205,0.337,0.317,0.302,0.168,0.101,west,3.3,No
2018/02/09,21:30,0.338,0.204,0.337,0.319,0.303,0.169,0.102,west-southwest,3.5,No
2018/02/09,21:40,0.337,0.206,0.337,0.320,0.303,0.169,0.101,southwest,2.7,No
2018/02/09,21:50,0.338,0.204,0.337,0.319,0.303,0.169,0.102,southwest,1.8,No
2018/02/09,22:00,0.338,0.205,0.336,0.319,0.302,0.168,0.101,west,2.1,No
2018/02/09,22:10,0.336,0.205,0.335,0.321,0.301,0.170,0.101,west-northwest,2.4,No
2018/02/09,22:20,0.338,0.205,0.336,0.319,0.303,0.169,0.102,west-northwest,3.1,No
2018/02/09,22:30,0.336,0.204,0.337,0.319,0.302,0.169,0.101,west,4.7,No
2018/02/09,22:40,0.338,0.205,0.336,0.321,0.302,0.169,0.101,west,3.2,No
2018/02/09,22:50,0.338,0.205,0.337,0.320,0.303,0.169,0.102,west,1.4,No
2018/02/09,23:00,0.337,0.204,0.336,0.319,0.303,0.169,0.101,west,2.9,No
2018/02/09,23:10,0.338,0.205,0.337,0.320,0.302,0.169,0.102,west-southwest,3.1,No
2018/02/09,23:20,0.338,0.205,0.337,0.320,0.302,0.169,0.102,southwest,1.5,No
2018/02/09,23:30,0.337,0.204,0.336,0.320,0.303,0.168,0.101,south-southwest,1.4,No
2018/02/09,23:40,0.338,0.205,0.336,0.318,0.303,0.169,0.101,east-northeast,0.8,No
2018/02/09,23:50,0.337,0.205,0.336,0.320,0.304,0.169,0.102,-,CALM,No
